Flag for Norway Weather past 2 weeks in Kirkenes, Norway

Now
17 °F

Cold.


Feels Like: 12 °F
Forecast: 13 / 18 °F
Wind: 3 mph from South

Location: Kirkenes Lufthavn

Current Time: Jan 28, 2015 at 2:35:26 AM

Latest Report: Jan 28, 2015 at 1:00 AM


Visibility: N/A

Pressure: 29.21 "Hg

Humidity: 95%

Dew point: 16 °F

Location of KirkenesLocation

Historic Weather in Kirkenes — Graph

°F

Kirkenes temperature yesterday

Maximum temperature yesterday: 30 °F (at 2:00 AM)
Minimum temperature yesterday: 19 °F (at 11:00 PM)
Average temperature yesterday: 24 °F

Past Weeks' High & Low Weather Summary

 TemperatureHumidityPressure
High30 °F (Jan 18, 12:00 AM)97% (Jan 17, 9:00 PM)30.46 "Hg (Jan 17, 9:00 PM)
Low-22 °F (Jan 13, 12:00 PM)67% (Jan 20, 5:00 PM)29.03 "Hg (Jan 16, 8:00 PM)
Average10 °F85%29.73 "Hg
* Reported Jan 13 1:00 AM — Jan 28 1:00 AM, Kirkenes, Weather by CustomWeather, © 2014

Note: Actual official high and low records may vary slightly from our data, if they occured in-between our weather recording intervals... More about our weather records

Advertising

Kirkenes weather history for previous 24 hours

 ConditionsComfort  
Time TempWeatherWind HumidityBarometerVisibility
1:00 AM
Jan 28
17 °FCold.3 mph95%29.21 "HgN/A
12:00 AM18 °FCold.3 mph92%29.21 "HgN/A
11:00 PM
Jan 27
19 °FCold.3 mph92%29.23 "HgN/A
10:00 PM19 °FCold.1 mph91%29.23 "HgN/A
9:00 PM19 °FCold.5 mph89%29.23 "HgN/A
8:00 PM20 °FCold.5 mph89%29.23 "HgN/A
7:00 PM20 °FCold.5 mph89%29.23 "HgN/A
6:00 PM21 °FCold.6 mph89%29.23 "HgN/A
5:00 PM21 °FCold.5 mph89%29.23 "HgN/A
4:00 PM21 °FCold.1 mph89%29.26 "HgN/A
1:00 PM23 °FCold.6 mph87%29.26 "HgN/A
12:00 PM24 °FCold.5 mph86%29.26 "HgN/A
11:00 AM24 °FCold.6 mph88%29.26 "HgN/A
10:00 AM24 °FCold.8 mph89%29.26 "HgN/A
9:00 AM24 °FCold.2 mph89%29.26 "HgN/A
8:00 AM25 °FCold.5 mph89%29.26 "HgN/A
7:00 AM26 °FChilly.9 mph89%29.26 "HgN/A
6:00 AM27 °FChilly.3 mph90%29.29 "HgN/A
5:00 AM28 °FChilly.3 mph89%29.29 "HgN/A
3:00 AM29 °FChilly.6 mph89%29.32 "HgN/A
2:00 AM30 °FChilly.7 mph86%29.32 "HgN/A
Weather by CustomWeather, © 2014

See weather overviewHow to use our weather pages